User: anonymous   Login
Location: Unspecified
(0.0000°N, 0.0000°E)
Time: 08:50:12
(UTC+00:00)
Language:

STARLINK-33820 - Orbit

View from above orbital plane
View from above orbital plane
View from above satellite
View from above satellite

Ground track
Ground track

The orbit is defined by the following mean orbital elements,

1 63584U          26145.57157979 +.00000000 +00000-0 +51815-3 0 00000
2 63584  42.9978 247.0551 0000747 274.0047  86.0719 15.27599172    02
Epoch (UTC): 25 May 2026 13:43:04
Eccentricity: 0.0000747
inclination: 42.9978°
perigee height: 482 km
apogee height: 484 km
right ascension of ascending node: 247.0551°
argument of perigee: 274.0047°
revolutions per day: 15.27599172
mean anomaly at epoch: 86.0719°

The dashed part of the orbit path shows where the satellite is in the earth's shadow,  

DLR